Location: Melque
(41.0517°N, 4.4694°W)
Time: 21:28:56
(UTC+00:00)

Cosmos 2237 - Pass Details

Date: 11 December 2025
Orbit: 848 x 854 km, 70.8° (Epoch: 12 January)

Event Time Altitude Azimuth Distance (km) Brightness Sun altitude
Rises 19:27:14 0° 208° (SSW) 3,409 7.8 -28.9°
Reaches altitude 10° 19:29:41 10° 210° (SSW) 2,477 7.0 -29.3°
Enters shadow 19:35:09 71° 276° (W) 902 4.3 -30.3°
